Regional Weather Roundup
Issued by NWS

Home | Current Version | Previous Version | Graphics & Text | Print | Product List | Glossary On
Versions: 1 2 3 4 5 6 7 8 9 10 11 12 13 14 15 16 17 18 19 20 21 22 23 24 25 26 27 28 29 30 31 32 33 34 35 36 37 38 39 40 41 42 43 44 45 46 47 48 49 50
000
ASUS43 KLOT 251103
RWRIL

ILLINOIS REGIONAL WEATHER ROUNDUP
NATIONAL WEATHER SERVICE CHICAGO/ROMEOVILLE IL
600 AM CDT MON JUL 25 2016

NOTE: "FAIR" INDICATES FEW OR NO CLOUDS BELOW 12,000 FEET WITH NO
SIGNIFICANT WEATHER AND/OR OBSTRUCTIONS TO VISIBILITY.

* THESE STATIONS ARE NOT UNDER NWS QUALITY CONTROL. THEY ALSO MAY NOT
  REPORT WEATHER SUCH AS PRECIPITATION OR FOG.

ILZ001-002-007-009-015-016-024-251200-
NORTHWEST ILLINOIS

CITY           SKY/WX    TMP DP  RH WIND       PRES   REMARKS
MOLINE         CLOUDY    69  65  86 CALM      30.02R
STERLING*      CLEAR     68  67  96 W6        30.02R
SAVANNA*       CLEAR     67  66  96 CALM      30.02R
$$

ILZ003-004-008-010-011-017-018-251200-
NORTH CENTRAL ILLINOIS

CITY           SKY/WX    TMP DP  RH WIND       PRES   REMARKS
ROCKFORD       PTCLDY    76  65  68 CALM      30.01R
FREEPORT*      CLEAR     66  65  94 NW7       30.03R
ROCHELLE*      PTCLDY    66  66  98 CALM      30.01R
DE KALB*       CLEAR     69  67  92 W6        30.01R
$$

ILZ005-006-012>014-019>023-251200-
NORTHEAST ILLINOIS

CITY           SKY/WX    TMP DP  RH WIND       PRES   REMARKS
CHICAGO-OHARE  MOCLDY    73  69  87 W7        29.96R
CHICAGO-MIDWAY CLOUDY    75  69  81 W9        29.96R
AURORA         CLEAR     71  69  93 CALM      29.98S FOG
LANSING*       CLOUDY    72  66  82 W7        29.96R
WAUKEGAN       PTCLDY    72  66  81 W3        29.96R
DUPAGE AIRPORT CLEAR     71  68  90 NW5       29.97R
KANKAKEE*      PTCLDY    69  67  92 W5        29.97S
WHEELING       PTCLDY    72  68  87 W3        29.98R
MORRIS*        CLOUDY    71  70  95 CALM      29.97R
NORTHERLY ISL    N/A     74  67  78 W7          N/A
$$

LMZ740>746-251200-
SOUTHERN LAKE MICHIGAN

STATION/POSITION SKY/WX   TEMP    WIND        PRES    VSBY  WAVE
                          AIR SEA DIR/SP/G                  HT/PER
                          (F)     (DEG/KT/KT) (MB)    (MI)  (FT/S)
SOUTHERN BUOY              74 72  290/  8/ 10 1012.3          2/ 4
WILMETTE HARBOR            68 63  270/  6/  8   N/A           1/ 2
HARRISON CRIB              77     260/ 13/ 14   N/A
BURNHAM HARBOR             74     270/  4/ 10   N/A
CALUMET HARBOR             75     250/  5/  8 1013.5F
BURNS HARBOR               74     260/ 13/ 18 1014.6R
MICHIGAN CITY              74     230/ 15/ 17   N/A
MICHIGAN CITY 6N           74 74  280/ 16/ 19   N/A           3/ 4
ST. JOSEPH                 74 73  270/ 14/ 19 1013.5R         4/ 4
$$

ILZ025>027-034>036-040-047-049-050-058-095>099-251200-
WEST-CENTRAL ILLINOIS

CITY           SKY/WX    TMP DP  RH WIND       PRES   REMARKS
QUINCY         CLOUDY    75  72  90 E8        30.00S
GALESBURG*     PTCLDY    69  68  96 NW3       30.03S
MACOMB*        CLOUDY    72  71  97 CALM      30.05R
JACKSONVILLE*  CLOUDY    73  71  92 CALM      29.99F
PITTSFIELD*    CLOUDY    72  70  96 NW5       30.03S
$$

ILZ028>032-037-038-041>044-048-051>054-059>061-251200-
CENTRAL ILLINOIS

CITY           SKY/WX    TMP DP  RH WIND       PRES   REMARKS
PONTIAC        CLOUDY    72  71  99 W6        30.00R
BLOOMINGTON    CLOUDY    72  70  93 W8        30.03R
DECATUR        CLOUDY    73  69  87 W13G20    30.03R
PEORIA         CLOUDY    75  73  93 W8        30.01S
LACON*         CLOUDY    73  70  91 CALM      29.98S
LINCOLN*       CLOUDY    73  72  96 SW3       30.02R
SPRINGFIELD    CLOUDY    73  70  90 W3        30.00F
TAYLORVILLE    CLOUDY    71  70  96 SW6       30.00F
$$

ILZ033-039-045-046-055>057-062-063-251200-
EAST-CENTRAL ILLINOIS

CITY           SKY/WX    TMP DP  RH WIND       PRES   REMARKS
CHAMPAIGN      CLOUDY    71  68  90 NW3       30.02R
RANTOUL*       CLOUDY    72  70  94 W5        30.00R
MATTOON        CLOUDY    71  69  93 SW7       30.01R
PARIS*         CLOUDY    70  69  97 S6        29.99S
$$

ILZ079-100>102-251200-
SOUTHWEST ILLINOIS

CITY           SKY/WX    TMP DP  RH WIND       PRES   REMARKS
ALTON          RAIN      71  70  97 N3        29.99F
BELLEVILLE     CLOUDY    74  74 100 CALM      29.97S
CAHOKIA*       CLOUDY    74  71  91 VRB3      29.99S
SPARTA*        CLOUDY    75  72  92 NE8       30.01R
$$

ILZ064>066-069>071-074>076-080>082-084>086-088>090-092>094-251200-
SOUTH-CENTRAL ILLINOIS

CITY           SKY/WX    TMP DP  RH WIND       PRES   REMARKS
CARBONDALE     CLOUDY    77  75  93 SE5       29.98F FOG
CAIRO*         CLEAR     76  76  99 CALM      29.98F FOG
EFFINGHAM*     CLOUDY    73  73  99 SE6       30.02F
MARION         CLOUDY    77  77 100 CALM      30.00S FOG
MT. VERNON     CLOUDY    75  66  73 CALM      29.99F
CENTRALIA*     CLOUDY    76  74  92 NW6       30.00F
SALEM*         CLOUDY    75  72  89 NW3       30.01F
METROPOLIS*      N/A     75  74  98 CALM      30.00S FOG
$$

ILZ067-068-072-073-078-083-087-091-251200-
SOUTHEAST ILLINOIS

CITY           SKY/WX    TMP DP  RH WIND       PRES   REMARKS
LAWRENCEVILLE  CLOUDY    72  69  90 W3        30.01R
FLORA*         CLOUDY    74  71  91 CALM      30.01F
FAIRFIELD*     CLOUDY    73  71  93 CALM      30.00S
HARRISBURG*    CLOUDY    78  76  95 CALM      30.01R
ROBINSON*      CLOUDY    68  68  99 CALM      30.01S
CARMI*         CLOUDY    73  73 100 CALM      30.00S
$$

ABBREVIATIONS USED IN REMARKS
   TC - TEMPERATURE IN CELSIUS
  WCI - WIND CHILL INDEX
   HX - HEAT INDEX
  VSB - VISIBILITY
$$




USA.gov is the U.S. government's official web portal to all federal, state and local government web resources and services.